OPS 4311 (DMSP 5B F1)

Satellite information

Favourite Embed

Satellite Type and Status

PAYLOADIN ORBIT

Key statistics

Satellite OPS 4311 (DMSP 5B F1) at a glance.

Uptime

19563

Days in orbit

Revolutions

≈ 14.3

Per day

Orbit

SSO

Sun Synchronous Orbit

Inclination

99.0

Latest

Satellite identification and parameters

Extended collection of information and parameters for OPS 4311 (DMSP 5B F1).

Object identification

Identified? True

Debris? False

Object name: OPS 4311 (DMSP 5B F1)

International designator: 1971-087A

Object number (NORAD): 5557

Object ID (CCSDS): 5557

Country: UNITED STATES OF AMERICA (US)

Current information (Y/N): Y

RCS size: LARGE

Orbital parameters

Period: 100.822 minutes

Inclination: 99.0251 deg

SMA: 7175.669 km

Apoapsis: 833.831 km

Periapsis: 761.236 km

RAAN: 209.6378 deg

Eccentricy: 0.0050584

Argument of periapsis: 9.0465 deg

Mean anomaly: 351.1615 deg

Mean motion: 14.28266359 rev/day

Mean motion (dot): 0.00000295 rev/day2

B* drag term: 0.00013525 1/REarth

Two-line elements (TLE)

Creation date: May 6, 2025, 3:54 a.m.

Reference frame: TEME

Reference center: EARTH

Epoch: May 5, 2025, 7:22 p.m. UTC

TLE line 0: 0 OPS 4311 (DMSP 5B F1)

TLE line 1: 1 05557U 71087A 25125.80741627 .00000295 00000-0 13525-3 0 9990

TLE line 2: 2 05557 99.0251 209.6378 0050584 9.0465 351.1615 14.28266359782286

Live tracking on map

Real-time ground track for satellite OPS 4311 (DMSP 5B F1).

In-orbit conjunctions

There are no conjunctions computed for OPS 4311 (DMSP 5B F1), at the moment. Check back to stay up to date, as we update our databases every day.

Go to all conjunctions

Associated space launch

Military meteorological satellite

OPS 4311 (DMSP 5B F1) was lifted into orbit during the mission ‘Thor Burner 2A | DSAP-5B F1’, on board a Thor Burner 2A space rocket.

The launch took place on Oct. 14, 1971, 7:51 a.m. from Space Launch Complex 10W.

For more information about the launch, click the button.

Launch to space Thor Burner 2A | DSAP-5B F1
Thor Burner 2A | DSAP-5B F1

Agency: N/A

Status: Launch Successful

Launch date: Oct. 14, 1971, 7:51 a.m. UTC

Rocket: Thor Burner 2A

Launch pad: Space Launch Complex 10W

Location: Vandenberg SFB, CA, USA

...

Latest news about this satellite

There are no fresh news available about this satellite. Check back as we update our databases every day.


Newsletter sign-up

Weekly statistics, charts and insights to help you stay on top of the space industry.